sat.trackr.live / text

‹ back to catalog

JILIN-1 KUANFU 01

NORAD 45016 · 2020-003A

PAYLOAD ACTIVE UNKNOWN

§ Identity

Operator
Country
PRC
Launch date
2020-01-15
Launch site
TAISC
Launch vehicle
Mass (kg)
RCS (m²)

External: N2YO · Heavens-Above · Gunter

§ Orbital elements

Epoch: 2026-09-10T02:54:31.982400Z

Period
95.29 min
Inclination
97.4966°
Eccentricity
0.0010006
Mean motion
15.11126744 rev/d
Perigee alt
525.8 km
Apogee alt
539.7 km
Semi-major
6,910.9 km
B*
1.1348e-4
RAAN
325.4098°
Arg perigee
20.1860°
Mean anomaly
339.9763°
Rev number
36,815

§ Raw data

JILIN-1 KUANFU 011 45016U 20003A   26253.12120350  .00001840  00000+0  11348-3 0  99952 45016  97.4966 325.4098 0010006  20.1860 339.9763 15.11126744368159

JSON: /api/v1/satellites/45016 · /tle

For live sub-satellite position, see the globe view (requires WebGL).

§ Visibility from observer

Set your observer location to see the next 7 days of passes ≥ 10°. The values pass through the URL so the page stays shareable.

No JS? Fill the form by hand. The geolocation button needs JavaScript.

§ Radio — SatNOGS DB

ModeDescriptionDownlinkUplink
BPSK S-band telemetry 2.280 GHz

1 transmitter · refreshed weekly from db.satnogs.org